Location: Dallas
(32.7833°N, 96.8000°W)
Time: 23:39:22
(UTC-06:00)

Envisat - Pass Details

Date: 30 January 2021
Orbit: 764 x 766 km, 98.1° (Epoch: 06 March)

Event Time Altitude Azimuth Distance (km) Brightness Sun altitude
Rises 18:21:55 0° 198° (SSW) 3,216 6.8 -5.5°
Reaches altitude 10° 18:24:39 10° 212° (SSW) 2,295 6.3 -6.1°
Maximum altitude 18:28:38 23° 264° (W) 1,575 5.8 -6.9°
Drops below altitude 10° 18:32:38 10° 317° (NW) 2,306 5.9 -7.7°
Sets 18:35:24 0° 331° (NNW) 3,236 6.4 -8.2°
